This is the latest recevied weather packets stored in our database for station/object AI5YA-13. If no packets are shown the sender has not sent any weather packets the latest 10 day(s).
| Time | Temp. | Humidity | Pressure | Rain* | Wind** | Luminosity | Snow |
|---|---|---|---|---|---|---|---|
| 1777661672 | 10.56° C | 85% | 1017.5 hPa | 0 mm | - | 249 W/m² | - |
| 1777661368 | 11.11° C | 86% | 1017.7 hPa | 0 mm | - | 200 W/m² | - |
| 1777661065 | 11.11° C | 86% | 1017.9 hPa | 0 mm | - | 279 W/m² | - |
| 1777660759 | 10.56° C | 86% | 1017.3 hPa | 0 mm | - | 193 W/m² | - |
| 1777660457 | 11.11° C | 87% | 1017.4 hPa | 0 mm | - | 236 W/m² | - |
| 1777660153 | 10.56° C | 87% | 1017.7 hPa | 0 mm | - | 219 W/m² | - |
| 1777659850 | 10.56° C | 87% | 1017.7 hPa | 0 mm | - | 165 W/m² | - |
| 1777659546 | 10.56° C | 87% | 1018 hPa | 0 mm | - | 140 W/m² | - |
| 1777659244 | 10.56° C | 87% | 1017.8 hPa | 0 mm | - | 167 W/m² | - |
| 1777658941 | 10.56° C | 88% | 1017.8 hPa | 0 mm | - | 154 W/m² | - |
| 1777658637 | 10.56° C | 88% | 1018 hPa | 0 mm | - | 184 W/m² | - |
| 1777658334 | 10.56° C | 89% | 1018.2 hPa | 0 mm | - | 217 W/m² | - |
| 1777658031 | 10° C | 89% | 1018.1 hPa | 0 mm | - | 271 W/m² | - |
| 1777657728 | 10° C | 91% | 1018.2 hPa | 0 mm | - | 273 W/m² | - |
| 1777657425 | 10° C | 91% | 1018.5 hPa | 0 mm | - | 229 W/m² | - |
| 1777657123 | 10° C | 92% | 1018.7 hPa | 0 mm | - | 354 W/m² | - |
| 1777656820 | 10.56° C | 93% | 1018.4 hPa | 0 mm | - | 179 W/m² | - |
| 1777656516 | 10.56° C | 93% | 1018.6 hPa | 0 mm | - | 209 W/m² | - |
| 1777656211 | 10° C | 93% | 1018.8 hPa | 0 mm | - | 104 W/m² | - |
| 1777655907 | 10° C | 93% | 1018.7 hPa | 0 mm | - | 168 W/m² | - |
| 1777655604 | 10.56° C | 93% | 1018.7 hPa | 0 mm | - | 195 W/m² | - |
| 1777655300 | 10.56° C | 93% | 1018.9 hPa | 0 mm | - | 80 W/m² | - |
| 1777654997 | 10.56° C | 93% | 1018.7 hPa | 0 mm | - | 85 W/m² | - |
| 1777654694 | 10.56° C | 93% | 1018.9 hPa | 0 mm | - | 178 W/m² | - |
| 1777654393 | 10.56° C | 94% | 1018.7 hPa | 0 mm | - | 330 W/m² | - |
* Rain latest hour (hover to see other rain measurements)
** Current wind speed in m/s (hover to see current wind gust speed)